Meriden, CT

6:30 AM EST on November 22, 2019 (GMT -0500)
Meriden Markham Municipal

Weather History for KMMK - October, 2019

Change the Weather History Date:

Monday, October 21, 2019

  Actual Average (WUND) Record (WUND)
Temperature  
Mean Temperature 57 °F -  
Max Temperature 68 °F - - (-1)
Min Temperature 46 °F - - (-1)
Degree Days  
Heating Degree Days 8    
Growing Degree Days 7 (Base 50)    
Moisture  
Dew Point 46 °F    
Average Humidity 77    
Maximum Humidity 93    
Minimum Humidity 45    
Precipitation  
Precipitation 0.01 in - - ()
Sea Level Pressure  
Sea Level Pressure 30.07 in    
Wind  
Wind Speed 5 mph (North)    
Max Wind Speed 13 mph    
Max Gust Speed 18 mph    
Visibility 10 miles    
Events Rain    
Averages and records for this station are not official NWS values.
T = Trace of Precipitation, MM = Missing Value Source: NWS Daily Summary

Daily Weather History Graph

Daily Weather History Graph

Search for Another Location

Airport or City:

Astronomy

Oct. 21, 2019 Rise Set
Actual Time 7:09 AM EDT 6:01 PM EDT
Civil Twilight 6:41 AM EDT 6:29 PM EDT
Nautical Twilight 6:09 AM EDT 7:01 PM EDT
Astronomical Twilight 5:37 AM EDT 7:33 PM EDT
Moon No Moon Rise 2:28 PM EDT (10/21)
Length of Visible Light 11h 47m
Length of Day
10h 51m
Waning Gibbous, 48% of the Moon is Illuminated
Oct 21
Waning Gibbous
Oct 27
New
Nov 4
First Quarter
Nov 12
Full
Nov 19
Last Quarter

Hourly Weather History & Observations

Time (EDT) Temp. Dew Point Humidity Pressure Visibility Wind Dir Wind Speed Gust Speed Precip Events Conditions
12:53 AM 50.0 °F 46.9 °F 89% 30.02 in 10.0 mi Variable 4.6 mph - 0.01 in Rain Light Rain
1:53 AM 50.0 °F 48.0 °F 93% 30.02 in 10.0 mi NNW 4.6 mph - 0.00 in   Overcast
2:53 AM 51.1 °F 46.9 °F 86% 30.01 in 10.0 mi North 5.8 mph - N/A   Overcast
3:53 AM 48.9 °F 46.0 °F 90% 30.00 in 10.0 mi North 6.9 mph - N/A   Partly Cloudy
4:53 AM 48.0 °F 45.0 °F 89% 30.02 in 10.0 mi North 5.8 mph - N/A   Clear
5:53 AM 48.0 °F 45.0 °F 89% 30.04 in 10.0 mi North 8.1 mph - N/A   Clear
6:53 AM 48.0 °F 45.0 °F 89% 30.06 in 10.0 mi North 6.9 mph - N/A   Clear
7:53 AM 48.9 °F 45.0 °F 86% 30.06 in 10.0 mi North 6.9 mph - N/A   Clear
8:53 AM 51.1 °F 46.0 °F 83% 30.08 in 10.0 mi NNE 8.1 mph - N/A   Clear
10:53 AM 57.0 °F 46.0 °F 67% 30.08 in 10.0 mi North 10.4 mph - N/A   Clear
11:53 AM 61.0 °F 46.0 °F 58% 30.08 in 10.0 mi North 12.7 mph - N/A   Clear
12:53 PM 63.0 °F 45.0 °F 52% 30.07 in 10.0 mi NNE 10.4 mph - N/A   Clear
1:53 PM 64.9 °F 45.0 °F 48% 30.06 in 10.0 mi North 10.4 mph 18.4 mph N/A   Clear
2:53 PM 66.9 °F 45.0 °F 45% 30.06 in 10.0 mi Variable 6.9 mph - N/A   Clear
3:53 PM 66.9 °F 46.0 °F 47% 30.06 in 10.0 mi North 6.9 mph - N/A   Clear
4:53 PM 66.9 °F 46.0 °F 47% 30.07 in 10.0 mi Calm Calm - N/A   Clear
5:53 PM 57.0 °F 48.9 °F 74% 30.09 in 10.0 mi Calm Calm - N/A   Clear
6:53 PM 53.1 °F 48.0 °F 83% 30.10 in 10.0 mi Calm Calm - N/A   Clear
7:53 PM 51.1 °F 48.0 °F 89% 30.12 in 10.0 mi Calm Calm - N/A   Clear
8:53 PM 48.0 °F 46.0 °F 93% 30.14 in 10.0 mi Calm Calm - N/A   Clear
9:53 PM 48.0 °F 46.0 °F 93% 30.14 in 10.0 mi Calm Calm - N/A   Clear
10:53 PM 48.9 °F 46.0 °F 90% 30.13 in 10.0 mi NW 3.5 mph - N/A   Clear
11:53 PM 46.9 °F 45.0 °F 93% 30.15 in 10.0 mi Calm Calm - N/A   Clear